Regional Weather Roundup
Issued by NWS Portland, ME

Current Version | Previous Version | Text Only | Print | Product List | Glossary Off
Versions: 1 2 3 4 5 6 7 8 9 10 11 12 13 14 15 16 17 18 19 20 21 22 23 24 25 26 27 28 29 30 31 32 33 34 35 36 37 38 39 40 41 42 43 44 45 46 47 48 49 50

000
ASUS41 KGYX 230905
RWRGYX
WEATHER ROUNDUP FOR MAINE AND NEW HAMPSHIRE
NATIONAL WEATHER SERVICE GRAY ME
500 AM EDT WED AUG 23 2017

MEZ002-005-006-010-012-015-018-020-021-024-026-027-029-231000-
MAINE

CITY           SKY/WX    TMP DP  RH WIND       PRES   REMARKS
PORTLAND       CLOUDY    69  67  93 SW6       29.64R
SANFORD        CLOUDY    70  69  97 W3        29.66S
BAR HARBOR     CLOUDY    65  64  97 S12       29.63S
WISCASSET      CLOUDY    70  68  93 SW10      29.64R
ROCKLAND       CLOUDY    66  66 100 SW10      29.62S
FRYEBURG       CLEAR     69  67  93 SW9       29.63S
LEWISTONAUBURN CLOUDY    69  67  93 S9        29.62R
AUGUSTA        CLOUDY    68  67  96 S3        29.62R
WATERVILLE     CLOUDY    69  68  96 SW6       29.57F
BANGOR         PTCLDY    70  67  90 S8        29.59F
GREENVILLE       N/A     65  64  97 CALM      29.59R
MILLINOCKET    LGT RAIN  70  69  97 VRB5      29.57S
HOULTON        CLOUDY    71  70  96 SW9       29.52S
PRESQUE ISLE   PTCLDY    68  66  93 SW8       29.52S
FRENCHVILLE    CLOUDY    65  64  97 VRB3      29.49S FOG
CARIBOU        PTCLDY    69  65  86 SW12      29.50R
$$

NHZ002-005-008-009-011-012-014-231000-
NEW HAMPSHIRE

CITY           SKY/WX    TMP DP  RH WIND       PRES   REMARKS
PORTSMOUTH     MOCLDY    72  70  95 SW9       29.64F
ROCHESTER      CLOUDY    70  68  93 CALM      29.65S
NASHUA         CLOUDY    70  70 100 CALM      29.68F
MANCHESTER     MOCLDY    71  67  87 SW5       29.65F
CONCORD        FOG       69  68  96 CALM      29.67S VSB 3/4
LACONIA        PTCLDY    68  66  93 SW7       29.66F
PLYMOUTH       FAIR      66  64  91 CALM      29.64F
BERLIN         CLOUDY    68  63  84 VRB6      29.64R
WHITEFIELD     CLOUDY    68  63  84 CALM      29.64F
JAFFREY        CLEAR     70  69  97 VRB5      29.72S
KEENE            N/A    N/A N/A N/A MISG        N/A
LEBANON        CLOUDY    70  66  87 S7        29.66S
MT WASHINGTON  FOG       50  50 100 W54G62      N/A  VSB 0
$$

VTZ005-007-008-231000-
VERMONT

CITY           SKY/WX    TMP DP  RH WIND       PRES   REMARKS
ST JOHNSBURY     N/A     68  68 100 MISG      29.62R
MONTPELIER     PTCLDY    68  62  81 SW9       29.69R
BURLINGTON     CLOUDY    68  57  68 W16G24    29.66R
$$

MAZ007-012-024-CTZ003-RIZ002-NYZ038-NYZ072-231000-
SOUTHERN NEW ENGLAND AND NY

CITY           SKY/WX    TMP DP  RH WIND       PRES   REMARKS
BOSTON         MOCLDY    75  72  90 SW13      29.68S
WORCESTER      MOCLDY    71  68  90 W14       29.73R
NANTUCKET      CLOUDY    71  71 100 S15G23    29.77F FOG
PROVIDENCE     CLOUDY    74  71  91 SW7       29.73R
HARTFORD       CLOUDY    73  71  93 SW6       29.71R
ALBANY         CLOUDY    68  60  75 W12       29.75R
NEW YORK CITY  CLOUDY    74  73  97 SW9       29.75R
$$

ANZ081-ANZ082-ANZ150-NHZ014-MEZ023>029-231000-
COASTAL MARINE OBSERVATIONS

STATION/POSITION TIME  TEMP    WIND        PRES    WAVE
                       AIR SEA DIR/SP/G            HT/PER
                 (UTC) (F)     (DEG/KT/KT) (MB)    (FT/S)
MOUNT DESERT ROC 0900   60                 1004.1F
MATINICUS ROCK   0800   63     210/ 22/ 23 1003.6F
ISLE OF SHOALS   0800   71     190/ 12/ 13 1003.9F
JEFFREYS LEDGE   0806      64                N/A     5/ 6
CASHES LEDGE BUO 0750   68 68              1005.1    8/ 8
GEORGES BANK BUO 0750   69 65              1012.6    4/ 6
$$

.............KEY..............
   WCI - WIND CHILL
   TC  - TEMPERATURE IN CELSIUS
   VSB - VISIBILITY IN MILES
   HX  - HEAT INDEX
   FAIR- INDICATES FEW OR NO CLOUDS BELOW 12,000 FT, WITH NO
         SIGNIFICANT WEATHER AND/OR OBSTRUCTIONS TO VISIBILITY.






USA.gov is the U.S. government's official web portal to all federal, state and local government web resources and services.